DW8947 Weather Reports


Display with metric or nautical units.
time (UTC)temp
F
wind
direction
speed
MPH
gust
MPH
rain 1hr
in
rain 24hr
in
rain mn
in
humidity
%
barometer
mb
20240523131705 50 205 0.0 3.0 0.00 0.00 0.00 89 1018.8
20240523131205 50 205 0.0 2.0 0.00 0.00 0.00 89 1018.8
20240523130205 50 112 1.0 3.0 0.00 0.00 0.00 89 1018.7
20240523125705 50 158 0.0 1.0 0.00 0.00 0.00 89 1018.7
20240523125205 50 156 0.0 2.0 0.00 0.00 0.00 89 1018.8
20240523124705 50 154 0.0 2.0 0.00 0.00 0.00 89 1018.7
20240523123705 50 161 0.0 3.0 0.00 0.00 0.00 90 1018.7
20240523123205 50 206 0.0 1.0 0.00 0.00 0.00 90 1018.6
20240523122705 50 221 0.0 3.0 0.00 0.01 0.00 90 1018.6
20240523122205 50 344 0.0 2.0 0.00 0.01 0.00 90 1018.6
20240523121205 49 358 0.0 2.0 0.00 0.01 0.00 90 1018.6
20240523115704 49 328 0.0 1.0 0.00 0.02 0.00 91 1018.6
20240523115205 49 329 0.0 2.0 0.00 0.02 0.00 91 1018.6
20240523113205 49 142 0.0 1.0 0.00 0.02 0.00 91 1018.6
20240523112705 49 142 0.0 2.0 0.00 0.02 0.00 91 1018.6
20240523112204 49 142 0.0 1.0 0.00 0.02 0.00 91 1018.5
20240523111704 49 142 0.0 3.0 0.00 0.02 0.00 91 1018.5
20240523110204 49 187 0.0 1.0 0.00 0.02 0.00 91 1018.5
20240523105705 49 187 0.0 1.0 0.00 0.02 0.00 91 1018.5
20240523105204 49 185 0.0 2.0 0.00 0.02 0.00 91 1018.5
20240523104705 49 183 0.0 1.0 0.00 0.03 0.00 91 1018.5
20240523103205 49 184 0.0 3.0 0.00 0.03 0.00 91 1018.5
20240523102705 49 184 1.0 3.0 0.00 0.04 0.00 92 1018.4
20240523102205 49 187 1.0 3.0 0.00 0.04 0.00 92 1018.4
20240523100705 49 125 0.0 3.0 0.00 0.09 0.00 92 1018.4
20240523100205 49 124 0.0 3.0 0.00 0.11 0.00 92 1018.3
20240523093205 49 222 0.0 1.0 0.00 0.12 0.00 92 1018.3
20240523091205 49 185 0.0 0.0 0.00 0.14 0.00 91 1018.2
20240523085705 49 176 0.0 1.0 0.00 0.14 0.00 91 1018.1
20240523085204 49 176 0.0 1.0 0.00 0.15 0.00 91 1018.0
20240523084705 49 176 0.0 1.0 0.00 0.15 0.00 91 1018.0
20240523083705 50 176 0.0 1.0 0.00 0.16 0.00 90 1017.9
20240523083204 50 175 0.0 1.0 0.00 0.20 0.00 90 1017.8
20240523082704 50 175 0.0 1.0 0.00 0.22 0.00 90 1017.7
20240523081705 50 175 0.0 1.0 0.00 0.22 0.00 90 1017.8
20240523081204 50 175 0.0 1.0 0.00 0.23 0.00 90 1017.7
20240523080205 50 175 0.0 1.0 0.00 0.24 0.00 90 1017.6
20240523075204 50 175 0.0 0.0 0.00 0.24 0.00 89 1017.7
20240523073704 50 175 0.0 0.0 0.00 0.24 0.00 88 1017.5
20240523072705 51 175 0.0 0.0 0.00 0.24 0.00 86 1017.4
20240523071205 51 175 0.0 0.0 0.00 0.26 0.00 85 1017.4
20240523070205 51 175 0.0 0.0 0.00 0.27 0.00 84 1017.4
20240523065705 51 175 0.0 0.0 0.00 0.27 0.27 84 1017.4
20240523064705 51 175 0.0 0.0 0.00 0.28 0.27 84 1017.4
20240523064204 51 175 0.0 0.0 0.00 0.28 0.27 84 1017.4
20240523063704 52 175 0.0 0.0 0.00 0.28 0.27 83 1017.3
20240523063204 52 175 0.0 0.0 0.00 0.28 0.27 82 1017.2
20240523062205 52 175 0.0 0.0 0.00 0.28 0.27 81 1017.3
20240523060704 53 175 0.0 0.0 0.00 0.28 0.27 82 1017.3
20240523055705 53 175 0.0 0.0 0.00 0.28 0.27 82 1017.4
20240523055205 53 175 0.0 0.0 0.00 0.28 0.27 82 1017.3
20240523054204 53 175 0.0 0.0 0.00 0.28 0.27 82 1017.4
20240523052705 53 175 0.0 1.0 0.00 0.28 0.27 82 1017.5
20240523052204 53 175 0.0 0.0 0.00 0.28 0.27 83 1017.4
20240523051705 53 175 0.0 0.0 0.00 0.28 0.27 82 1017.4
20240523051206 53 175 0.0 0.0 0.00 0.28 0.27 82 1017.4
20240523050705 53 175 0.0 0.0 0.00 0.28 0.27 82 1017.3
20240523045705 53 175 0.0 0.0 0.00 0.28 0.27 83 1017.1
20240523045204 53 175 0.0 0.0 0.00 0.28 0.27 83 1017.1
20240523043705 54 175 0.0 0.0 0.00 0.28 0.27 82 1016.9
20240523043205 54 175 0.0 0.0 0.00 0.28 0.27 81 1016.9
20240523042705 54 175 0.0 1.0 0.00 0.28 0.27 81 1016.9
20240523040705 55 223 0.0 0.0 0.00 0.28 0.27 79 1016.7
20240523034704 55 223 0.0 0.0 0.00 0.28 0.27 79 1016.4
20240523032205 55 223 0.0 0.0 0.00 0.28 0.27 80 1016.2
20240523031204 56 223 0.0 0.0 0.00 0.28 0.27 79 1016.1
20240523030705 56 223 0.0 0.0 0.00 0.28 0.27 79 1016.0
20240523025704 56 223 0.0 0.0 0.00 0.28 0.27 80 1015.9
20240523025205 56 223 0.0 0.0 0.00 0.28 0.27 80 1015.9
20240523024205 56 223 0.0 0.0 0.00 0.28 0.27 79 1015.9
20240523023704 56 223 0.0 0.0 0.00 0.28 0.27 80 1016.0
20240523021205 55 198 0.0 0.0 0.00 0.28 0.27 81 1015.8
20240523014205 56 198 0.0 0.0 0.00 0.29 0.27 78 1015.5
20240523013704 56 198 0.0 0.0 0.00 0.29 0.27 77 1015.5
20240523013204 56 198 0.0 0.0 0.00 0.29 0.27 77 1015.4
20240523012704 57 198 0.0 0.0 0.00 0.29 0.27 74 1015.4
20240523011704 57 198 0.0 0.0 0.00 0.29 0.27 76 1015.2
20240523010205 58 184 0.0 2.0 0.00 0.30 0.27 75 1015.1
20240523005704 58 185 0.0 1.0 0.00 0.30 0.27 71 1015.1
20240523003704 58 196 0.0 2.0 0.00 0.32 0.27 70 1015.1
20240523000205 58 150 0.0 3.0 0.00 0.34 0.27 76 1014.9
20240522235204 58 161 0.0 1.0 0.00 0.35 0.27 75 1014.8
20240522234705 58 161 0.0 3.0 0.00 0.35 0.27 77 1014.8
20240522232705 58 247 0.0 2.0 0.00 0.37 0.27 74 1014.6
20240522231704 58 313 0.0 0.0 0.00 0.38 0.27 75 1014.6
20240522231205 58 313 0.0 0.0 0.00 0.38 0.27 77 1014.6
20240522230204 58 314 0.0 2.0 0.00 0.38 0.27 75 1014.5
20240522225704 58 338 0.0 2.0 0.00 0.38 0.27 73 1014.5
20240522224205 58 6 0.0 2.0 0.00 0.38 0.27 75 1014.3
20240522221705 56 254 1.0 2.0 0.00 0.38 0.27 81 1014.3
20240522220205 56 271 0.0 1.0 0.00 0.39 0.27 82 1014.3
20240522215705 56 271 1.0 3.0 0.00 0.39 0.27 79 1014.2
20240522212705 54 204 0.0 3.0 0.00 0.39 0.27 83 1014.0
20240522212204 54 311 1.0 3.0 0.00 0.39 0.27 84 1013.9
20240522211205 55 282 0.0 2.0 0.00 0.39 0.27 85 1013.9
20240522210204 55 282 0.0 1.0 0.00 0.39 0.27 89 1013.8
20240522203204 54 190 0.0 2.0 0.00 0.39 0.27 86 1013.7
20240522202205 54 215 0.0 2.0 0.00 0.39 0.27 87 1013.6
20240522201705 54 309 0.0 2.0 0.00 0.39 0.27 87 1013.5
20240522201205 54 309 0.0 1.0 0.00 0.39 0.27 87 1013.5
20240522200705 54 309 0.0 1.0 0.00 0.39 0.27 91 1013.4
20240522195704 54 309 0.0 0.0 0.00 0.39 0.27 91 1013.3
20240522194705 53 309 0.0 0.0 0.00 0.39 0.27 91 1013.2
20240522193704 52 308 0.0 3.0 0.00 0.39 0.27 91 1013.2
20240522192205 52 308 0.0 0.0 0.00 0.39 0.27 92 1013.1
20240522191705 52 308 0.0 0.0 0.00 0.39 0.27 92 1013.0
20240522190705 52 308 0.0 1.0 0.00 0.39 0.27 92 1013.0
20240522185205 51 244 0.0 0.0 0.00 0.39 0.27 93 1012.7
20240522181205 51 244 0.0 0.0 0.00 0.39 0.27 93 1012.5
20240522180705 51 244 0.0 1.0 0.00 0.39 0.27 93 1012.5
20240522180204 50 244 0.0 0.0 0.00 0.39 0.27 93 1012.4
20240522174204 50 243 0.0 0.0 0.00 0.40 0.27 93 1012.1
20240522173705 50 243 0.0 0.0 0.00 0.40 0.27 93 1012.1
20240522173204 50 243 0.0 0.0 0.00 0.41 0.27 93 1012.0
20240522172704 50 243 0.0 0.0 0.00 0.41 0.27 93 1011.9
20240522172205 51 37 0.0 0.0 0.00 0.41 0.27 93 1011.9
20240522171705 50 34 0.0 0.0 0.00 0.41 0.27 93 1011.9
20240522171204 50 34 0.0 0.0 0.00 0.41 0.27 93 1011.9
20240522170705 50 34 0.0 0.0 0.00 0.41 0.27 93 1011.8
20240522170205 50 34 0.0 0.0 0.00 0.42 0.27 93 1011.8
20240522165204 50 8 0.0 0.0 0.00 0.42 0.27 93 1011.8
20240522164704 49 204 0.0 0.0 0.00 0.43 0.27 93 1011.8
20240522164204 49 211 0.0 0.0 0.00 0.43 0.27 93 1011.8
20240522162705 48 211 0.0 1.0 0.00 0.43 0.27 93 1011.7
20240522161704 48 211 0.0 1.0 0.00 0.44 0.27 93 1011.5
20240522161205 48 211 0.0 0.0 0.00 0.44 0.27 93 1011.6
20240522153704 48 222 0.0 0.0 0.00 0.45 0.27 93 1011.1
20240522152204 48 222 0.0 1.0 0.00 0.46 0.27 93 1011.0
20240522151204 48 222 0.0 0.0 0.00 0.46 0.27 93 1010.9
20240522145704 47 222 0.0 0.0 0.00 0.46 0.27 93 1010.7
20240522144704 47 222 0.0 2.0 0.00 0.46 0.27 93 1010.5
20240522142704 46 222 0.0 1.0 0.00 0.47 0.27 93 1010.3
20240522142204 46 222 0.0 0.0 0.00 0.47 0.27 93 1010.2
20240522141205 46 222 0.0 0.0 0.00 0.47 0.27 93 1010.1
20240522140204 46 222 0.0 0.0 0.00 0.48 0.27 93 1010.0
20240522135704 46 222 0.0 0.0 0.00 0.48 0.27 93 1010.0
20240522134704 46 222 0.0 0.0 0.00 0.48 0.27 93 1009.9